User: anonymous   Login
Location: Bangkok
(13.7500°N, 100.5170°E)
Time: 07:15:25
(UTC+07:00)
Language:

ERBS - Orbit

View from above orbital plane
View from above orbital plane
View from above satellite
View from above satellite

Ground track
Ground track

The orbit data is extracted from the following two-line orbital elements,

1 15354U 84108B   17053.09291217  .00002601  00000-0  67420-4 0  9998
2 15354  57.0079 273.6326 0006617 225.5077 134.5438 15.42822061780436
Epoch (UTC): 22 February 2017 02:13:47
Eccentricity: 0.0006617
inclination: 57.0079°
perigee height: 433 km
apogee height: 442 km
right ascension of ascending node: 273.6326°
argument of perigee: 225.5077°
revolutions per day: 15.42822061
mean anomaly at epoch: 134.5438°
orbit number at epoch: 78043

The dashed part of the orbit path shows where the satellite is in the earth's shadow,  

DLR